Location: Fort Worth, Tx
(32.7431°N, 97.3695°W)
Time: 20:48:49
(UTC-05:00)

Tiros 1 - Pass Details

Date: 05 October 2024
Orbit: 622 x 654 km, 48.4° (Epoch: 05 November)

Event Time Altitude Azimuth Distance (km) Brightness Sun altitude
Rises 14:54:38 0° 317° (NW) 2,902 10.3 51.1°
Reaches altitude 10° 14:57:33 10° 336° (NNW) 1,990 9.5 50.9°
Maximum altitude 15:00:50 19° 22° (NNE) 1,479 8.8 50.7°
Drops below altitude 10° 15:04:06 10° 68° (ENE) 1,984 9.5 50.5°
Sets 15:07:00 0° 86° (E) 2,890 10.3 50.3°
